Location: Bli��� Lhota
(48.7570°N, 14.0120°E)
Time: 09:06:15
(UTC+00:00)

ATLAS 3B R/B - Pass Details

Date: 18 September 2020
Orbit: 1016 x 1179 km, 63.8° (Epoch: 04 October)

Event Time Altitude Azimuth Distance (km) Brightness Sun altitude
Rises 21:22:25 0° 317° (NW) 3,837 6.6 -35.7°
Reaches altitude 10° 21:25:04 10° 313° (NW) 2,900 5.7 -36.0°
Enters shadow 21:30:03 45° 281° (WNW) 1,454 3.5 -36.3°
